When you browse on this site, cookies collect data to enhance your experience and personalize the content and advertising you see.
Visit our Privacy Policy to learn more. By continuing to use the site, you agree to this use of cookies and data.
  • Em Portugal
  • Lista de países
  • Para 7 dias
  • Temperatura da água
  • Mapa do tempo
  • Widgets de tempo
  • user-avatar
    Iniciar Sessão

    Previsão horária em Pabna

    Hoje, 16 Dezembro, Segunda-feira

    Tempo Temperatura Precipitação Vento Pressão Humidade
    00:00 +22°C° 0 mm 1 m/s 760 mmHg 70%
    01:00 +22°C° 0 mm 1 m/s 760 mmHg 70%
    02:00 +22°C° 0 mm 1 m/s 759 mmHg 69%
    03:00 +21°C° 0 mm 2 m/s 759 mmHg 69%
    04:00 +21°C° 0 mm 2 m/s 759 mmHg 68%
    05:00 +21°C° 0 mm 2 m/s 759 mmHg 67%
    06:00 +22°C° 0 mm 1 m/s 759 mmHg 66%
    07:00 +22°C° 0 mm 1 m/s 760 mmHg 64%
    08:00 +23°C° 0 mm 2 m/s 760 mmHg 63%
    09:00 +23°C° 0 mm 2 m/s 761 mmHg 61%
    10:00 +24°C° 0 mm 2 m/s 760 mmHg 57%
    11:00 +25°C° 0 mm 2 m/s 760 mmHg 54%
    12:00 +26°C° 0 mm 2 m/s 760 mmHg 50%
    13:00 +27°C° 0 mm 1 m/s 759 mmHg 47%
    14:00 +27°C° 0 mm 1 m/s 759 mmHg 45%
    15:00 +28°C° 0 mm 1 m/s 758 mmHg 43%
    16:00 +27°C° 0 mm 1 m/s 758 mmHg 47%
    17:00 +26°C° 0 mm 1 m/s 758 mmHg 51%
    18:00 +25°C° 0 mm 1 m/s 758 mmHg 55%
    19:00 +24°C° 0 mm 1 m/s 758 mmHg 57%
    20:00 +24°C° 0 mm 1 m/s 759 mmHg 58%
    21:00 +23°C° 0 mm 1 m/s 760 mmHg 60%
    22:00 +23°C° 0 mm 1 m/s 760 mmHg 61%
    23:00 +23°C° 0 mm 1 m/s 760 mmHg 63%

    Amanhã, 17 Dezembro, Terça-feira

    Tempo Temperatura Precipitação Vento Pressão Humidade
    00:00 +22°C° 0 mm 1 m/s 759 mmHg 64%
    01:00 +22°C° 0 mm 1 m/s 759 mmHg 65%
    02:00 +21°C° 0 mm 2 m/s 759 mmHg 65%
    03:00 +21°C° 0 mm 2 m/s 759 mmHg 66%
    04:00 +21°C° 0 mm 2 m/s 759 mmHg 66%
    05:00 +20°C° 0 mm 2 m/s 759 mmHg 65%
    06:00 +20°C° 0 mm 2 m/s 759 mmHg 64%
    07:00 +21°C° 0 mm 2 m/s 760 mmHg 61%
    08:00 +22°C° 0 mm 3 m/s 761 mmHg 58%
    09:00 +24°C° 0 mm 3 m/s 762 mmHg 55%
    10:00 +25°C° 0 mm 3 m/s 762 mmHg 51%
    11:00 +26°C° 0 mm 3 m/s 761 mmHg 46%
    12:00 +28°C° 0 mm 3 m/s 761 mmHg 41%
    13:00 +28°C° 0 mm 3 m/s 760 mmHg 41%
    14:00 +28°C° 0 mm 4 m/s 759 mmHg 41%
    15:00 +28°C° 0 mm 4 m/s 758 mmHg 41%
    16:00 +27°C° 0 mm 3 m/s 759 mmHg 46%
    17:00 +25°C° 0 mm 2 m/s 759 mmHg 50%
    18:00 +24°C° 0 mm 1 m/s 759 mmHg 54%
    19:00 +23°C° 0 mm 1 m/s 759 mmHg 54%
    20:00 +23°C° 0 mm 2 m/s 760 mmHg 55%
    21:00 +21°C° 0 mm 2 m/s 760 mmHg 56%
    22:00 +21°C° 0 mm 2 m/s 760 mmHg 56%
    23:00 +20°C° 0 mm 2 m/s 760 mmHg 56%

    Depois de amanhã, 18 Dezembro, Quarta-feira

    Tempo Temperatura Precipitação Vento Pressão Humidade
    00:00 +20°C° 0 mm 3 m/s 760 mmHg 56%
    01:00 +19°C° 0 mm 3 m/s 760 mmHg 56%
    02:00 +19°C° 0 mm 2 m/s 759 mmHg 56%
    03:00 +18°C° 0 mm 2 m/s 759 mmHg 56%
    04:00 +18°C° 0 mm 2 m/s 760 mmHg 57%
    05:00 +17°C° 0 mm 2 m/s 760 mmHg 59%
    06:00 +17°C° 0 mm 2 m/s 760 mmHg 60%
    07:00 +18°C° 0 mm 3 m/s 761 mmHg 56%
    08:00 +20°C° 0 mm 3 m/s 761 mmHg 53%
    09:00 +21°C° 0 mm 3 m/s 762 mmHg 49%
    10:00 +22°C° 0 mm 3 m/s 762 mmHg 44%
    11:00 +25°C° 0 mm 3 m/s 761 mmHg 39%
    12:00 +26°C° 0 mm 3 m/s 761 mmHg 34%
    13:00 +26°C° 0 mm 3 m/s 760 mmHg 32%
    14:00 +27°C° 0 mm 3 m/s 759 mmHg 30%
    15:00 +27°C° 0 mm 3 m/s 758 mmHg 28%
    16:00 +26°C° 0 mm 2 m/s 758 mmHg 32%
    17:00 +24°C° 0 mm 2 m/s 758 mmHg 36%
    18:00 +21°C° 0 mm 2 m/s 759 mmHg 40%
    19:00 +21°C° 0 mm 2 m/s 759 mmHg 42%
    20:00 +20°C° 0 mm 2 m/s 759 mmHg 43%
    21:00 +19°C° 0 mm 2 m/s 760 mmHg 44%
    22:00 +19°C° 0 mm 2 m/s 760 mmHg 46%
    23:00 +18°C° 0 mm 2 m/s 759 mmHg 47%

    19 Dezembro, Quinta-feira

    Tempo Temperatura Precipitação Vento Pressão Humidade
    00:00 +18°C° 0 mm 3 m/s 759 mmHg 48%
    01:00 +18°C° 0 mm 3 m/s 759 mmHg 50%
    02:00 +17°C° 0 mm 3 m/s 759 mmHg 52%
    03:00 +17°C° 0 mm 3 m/s 758 mmHg 54%
    04:00 +16°C° 0 mm 3 m/s 758 mmHg 56%
    05:00 +16°C° 0 mm 3 m/s 758 mmHg 57%
    06:00 +16°C° 0 mm 3 m/s 758 mmHg 59%
    07:00 +17°C° 0 mm 3 m/s 759 mmHg 56%
    08:00 +19°C° 0 mm 3 m/s 760 mmHg 53%
    09:00 +20°C° 0 mm 3 m/s 760 mmHg 50%
    10:00 +22°C° 0 mm 3 m/s 760 mmHg 46%
    11:00 +24°C° 0 mm 3 m/s 759 mmHg 41%
    12:00 +26°C° 0 mm 3 m/s 759 mmHg 37%
    13:00 +26°C° 0 mm 3 m/s 758 mmHg 35%
    14:00 +26°C° 0 mm 3 m/s 757 mmHg 33%
    15:00 +27°C° 0 mm 3 m/s 756 mmHg 31%
    16:00 +25°C° 0 mm 3 m/s 757 mmHg 35%
    17:00 +24°C° 0 mm 3 m/s 757 mmHg 39%
    18:00 +21°C° 0 mm 2 m/s 757 mmHg 43%
    19:00 +21°C° 0 mm 2 m/s 757 mmHg 44%
    20:00 +20°C° 0 mm 2 m/s 758 mmHg 45%
    21:00 +19°C° 0 mm 2 m/s 758 mmHg 47%
    22:00 +19°C° 0 mm 2 m/s 758 mmHg 48%
    23:00 +18°C° 0 mm 2 m/s 758 mmHg 50%

    20 Dezembro, Sexta-feira

    Tempo Temperatura Precipitação Vento Pressão Humidade
    00:00 +18°C° 0 mm 2 m/s 758 mmHg 52%
    01:00 +17°C° 0 mm 2 m/s 757 mmHg 53%
    02:00 +17°C° 0 mm 2 m/s 757 mmHg 55%
    03:00 +17°C° 0 mm 2 m/s 757 mmHg 56%
    04:00 +16°C° 0 mm 2 m/s 757 mmHg 57%
    05:00 +16°C° 0 mm 2 m/s 757 mmHg 58%
    06:00 +16°C° 0 mm 2 m/s 757 mmHg 58%
    07:00 +17°C° 0 mm 2 m/s 758 mmHg 54%
    08:00 +19°C° 0 mm 3 m/s 759 mmHg 51%
    09:00 +20°C° 0 mm 3 m/s 759 mmHg 47%
    10:00 +22°C° 0 mm 3 m/s 759 mmHg 43%
    11:00 +24°C° 0 mm 2 m/s 758 mmHg 40%
    12:00 +26°C° 0 mm 2 m/s 758 mmHg 36%
    13:00 +26°C° 0 mm 2 m/s 757 mmHg 34%
    14:00 +27°C° 0 mm 2 m/s 757 mmHg 32%
    15:00 +27°C° 0 mm 2 m/s 756 mmHg 30%
    16:00 +25°C° 0 mm 2 m/s 756 mmHg 34%
    17:00 +24°C° 0 mm 2 m/s 756 mmHg 38%
    18:00 +21°C° 0 mm 2 m/s 756 mmHg 42%
    19:00 +22°C° 0 mm 1 m/s 757 mmHg 44%
    20:00 +21°C° 0 mm 1 m/s 757 mmHg 45%
    21:00 +20°C° 0 mm 1 m/s 758 mmHg 47%
    22:00 +20°C° 0 mm 1 m/s 757 mmHg 48%
    23:00 +19°C° 0 mm 2 m/s 757 mmHg 50%

    21 Dezembro, Sábado

    Tempo Temperatura Precipitação Vento Pressão Humidade
    00:00 +18°C° 0 mm 2 m/s 757 mmHg 51%
    01:00 +18°C° 0 mm 2 m/s 757 mmHg 53%
    02:00 +18°C° 0 mm 2 m/s 757 mmHg 55%
    03:00 +17°C° 0 mm 2 m/s 757 mmHg 57%
    04:00 +17°C° 0 mm 2 m/s 757 mmHg 58%
    05:00 +17°C° 0 mm 2 m/s 757 mmHg 59%
    06:00 +16°C° 0 mm 2 m/s 757 mmHg 60%
    07:00 +18°C° 0 mm 2 m/s 758 mmHg 56%
    08:00 +19°C° 0 mm 2 m/s 759 mmHg 51%
    09:00 +21°C° 0 mm 2 m/s 759 mmHg 47%
    10:00 +23°C° 0 mm 2 m/s 759 mmHg 43%
    11:00 +25°C° 0 mm 1 m/s 759 mmHg 39%
    12:00 +26°C° 0 mm 1 m/s 758 mmHg 35%
    13:00 +27°C° 0 mm 1 m/s 758 mmHg 33%
    14:00 +27°C° 0 mm 2 m/s 757 mmHg 32%
    15:00 +28°C° 0 mm 2 m/s 756 mmHg 30%
    16:00 +26°C° 0 mm 1 m/s 756 mmHg 34%
    17:00 +24°C° 0 mm 1 m/s 756 mmHg 39%
    18:00 +23°C° 0 mm 1 m/s 757 mmHg 43%
    19:00 +22°C° 0 mm 1 m/s 757 mmHg 45%
    20:00 +19°C° 0 mm 0 m/s 757 mmHg 47%
    21:00 +18°C° 0 mm 0 m/s 758 mmHg 50%
    22:00 +18°C° 0 mm 0 m/s 758 mmHg 50%
    23:00 +18°C° 0 mm 0 m/s 758 mmHg 51%
    Mostrar mais